map of ZAH home
ZAH - Airport
Location
City:  Zahedan, Sistan va Baluchestan, Iran
Name:Zahedan International Airport
ICAO:OIZH
IATA:ZAH

Details
Type:Airport (Aerodrome, Airfield)
Use:Public/Civil, International (customs port of entry)
Latitude:2928'32"N (29.475686)
Longitude:6054'22"E (60.906189)
Datum:WGS 1984
Elevation:4564 ft (1391 m)
Variation:2.47E (WMM2015 magnetic declination)
0.05 annual change
Runways:2
Longest:13993 × 148 ft (4265 × 45 m), paved

Time
Time Zone:UTC+3:30 (DST+4:30)
Local Time:

Weather
METAR:OIZH 130900Z 15010KT CAVOK 19/M10 Q1022 A3020 NOSIG
TAF:OIZH 130530Z 1306/1412 16003MPS 8000 NSC
BECMG 1309/1311 18008MPS
BECMG 1402/1404 17003MPS
TEMPO 1410/1412 05007MPS

Related Locations
Nearby:
Farthest:IPC: 11835 mi / 19046 km
Easter Island (Isla de Pascua, Rapa Nui) [Mataveri Intl], VS, CL

Find:

   beyond  
but within

Other Information
Maps:
NOTAMs:
Links:
Sources:

  
  • flag of Iran
  

Sectional Chart

Flight Planning
at skyvector.com

Satellite Image

Google Maps Satellite view

 

Copyright © 2004-2018 Karl L. Swartz. All rights reserved.
The Great Circle Mapper name and logo are trademarks of the Great Circle Mapper.
All other trademarks mentioned herein belong to their respective owners.
Please see credits for attibutions and further copyright information.

  Follow gcmap on Facebook Follow gcmap on Twitter Follow gcmap on Google+ GCmap on LinkedIn

hCard Microformat

Geo Microformat